Regional Weather Roundup
Issued by NWS

Home | Current Version | Previous Version | Graphics & Text | Print | Product List | Glossary On
Versions: 1 2 3 4 5 6 7 8 9 10 11 12 13 14 15 16 17 18 19 20 21 22 23 24 25 26 27 28 29 30 31 32 33 34 35 36 37 38 39 40 41 42 43 44 45 46 47 48 49 50
000
ASUS43 KMPX 010910
RWRMN
WEATHER ROUNDUP FOR MINNESOTA
NATIONAL WEATHER SERVICE TWIN CITIES/CHANHASSEN MN
300 AM CST SUN MAR 01 2015


NOTE: "FAIR" INDICATES FEW OR NO CLOUDS BELOW 12,000 FEET WITH NO
SIGNIFICANT WEATHER AND/OR OBSTRUCTIONS TO VISIBILITY. N/A MEANS
CURRENT SKY AND/OR WEATHER CONDITIONS ARE NOT AVAILABLE.

MNZ060>063-068>070-011000-
   Twin Cities Metro

CITY           SKY/WX    TMP DP  RH WIND       PRES   REMARKS
TWIN CITIES    CLOUDY    16  10  77 S7        30.25F WCI   6
ST PAUL        LGT SNOW  15  10  80 SE8       30.27F WCI   4
CRYSTAL        MOCLDY    16  11  80 S10       30.23F WCI   4
BLAINE         CLOUDY    18  12  79 S9        30.23F WCI   6
LAKEVILLE      MOCLDY    14  10  85 S7        30.24F WCI   4
EDEN PRAIRIE   MOCLDY    16  10  77 S12       30.23F WCI   3
SOUTH ST PAUL  CLOUDY    16  10  80 S9        30.26F WCI   4
LAKE ELMO      CLOUDY    16  12  86 S12       30.26F WCI   3
$$
MNZ001>005-007-008-013>017-022>024-027-028-011000-
   Northwest Minnesota

CITY           SKY/WX    TMP DP  RH WIND       PRES   REMARKS
BEMIDJI        FLURRIES   4   0  82 W9        30.12S WCI -10
HALLOCK        CLEAR     -8 -11  84 S6        30.11F WCI -21
ROSEAU         FAIR       0  -6  78 SW9       30.08F WCI -16
WARROAD        CLEAR      1  -2  85 SW9       30.07F WCI -14
THIEF RVR FALL CLEAR      0   0 100 SW8       30.13F WCI -15
CROOKSTON      CLEAR     -6  -9  84 S6        30.18S WCI -18
FOSSTON        LGT SNOW  -4  -8  84 S7        30.14F WCI -18
DETROIT LAKES  CLEAR      5   1  85 W6        30.16F WCI  -6
MOORHEAD       CLEAR      1   0  92 SW6       30.21F WCI -10
PARK RAPIDS    CLEAR      3  -2  79 W12       30.12F WCI -13
MAHNOMEN       FAIR      -7 -11  83 S6        30.16S WCI -20
$$
MNZ006-009>011-018-025>026-011000-
   North Central Minnesota

CITY           SKY/WX    TMP DP  RH WIND       PRES   REMARKS
BAUDETTE       PTCLDY     4  -1  80 SW7       30.07S WCI  -8
FLAG ISLAND    CLEAR      3   0  85 SW9       30.04F WCI -11
INTL FALLS     MOCLDY    14   8  77 W10       30.05F WCI   1
WASKISH        MOCLDY     7   3  85 SW9       30.10F WCI  -7
BIG FORK       LGT SNOW  16  10  79 SW9       30.07F WCI   4
LONGVILLE      LGT SNOW  16  12  86 S6        30.10F WCI   7
GRAND RAPIDS   CLOUDY    16  10  79 S8        30.09F WCI   5
CRANE LAKE     FLURRIES  14   9  79 S6        30.09F WCI   5
ORR            CLOUDY    12   7  79 S8        30.04F WCI   1
COOK           FLURRIES  12   9  85 SW5       30.08F WCI   4
WALKER         FLURRIES  11   6  81 W13       30.11S WCI  -4
$$
MNZ012-019>021-037-011000-
   Northeast Minnesota

CITY           SKY/WX    TMP DP  RH WIND       PRES   REMARKS
DULUTH         LGT SNOW  11   5  77 SW14      30.13F WCI  -5
ELY            CLOUDY    10   7  85 SW9G18    30.08F WCI  -2
HIBBING        LGT SNOW  13   8  81 S6        30.10F WCI   4
EVELETH        LGT SNOW  12   9  85 SW7       30.11F WCI   2
DULUTH HARBOR  FLURRIES  16   9  73 SW12      30.22F WCI   3
SILVER BAY     FLURRIES  12   7  79 SW5       30.13F WCI   4
GRAND MARAIS     N/A     18   9  68 W14G21    30.17F WCI   4
G MARAIS ARPRT LGT SNOW   9   3  78 S8        30.07F WCI  -4
$$
MNZ029>031-032-039>041-046>048-054>057-064-011000-
   West Central Minnesota

CITY           SKY/WX    TMP DP  RH WIND       PRES   REMARKS
FERGUS FALLS   PTCLDY    -2  -6  84 W5        30.25S WCI -12
MORRIS         PTCLDY     7   1  78 W9        30.22S WCI  -7
ALEXANDRIA     PTCLDY    10   4  76 W12       30.17S WCI  -5
ELBOW LAKE     FAIR       2  -1  85 W8        30.20S WCI -11
WADENA         CLEAR      7   1  78 W5        30.16R WCI  -2
APPLETON       MOCLDY    10   3  72 W7        30.25F WCI   0
BENSON         CLOUDY    12   7  79 NW12      30.23R WCI  -2
ORTONVILLE     PTCLDY     9   1  72 W5        30.24F WCI   0
MADISON        PTCLDY    12   3  67 NW8       30.26S WCI   1
WILLMAR        FAIR      18  10  73 NW14      30.20F WCI   4
$$
MNZ033>034-036-042>043-049>051-058-059-011000-
   Central Minnesota

CITY           SKY/WX    TMP DP  RH WIND       PRES   REMARKS
ST CLOUD       CLOUDY    13  10  88 S7        30.19F WCI   3
SAUK CENTRE    CLOUDY    17  13  85 W12       30.18S WCI   4
PAYNESVILLE    CLOUDY    13  11  90 SW10      30.20S WCI   0
PINE RIVER     FLURRIES  16  12  86 SW5       30.15F WCI   9
BRAINERD       CLOUDY    14  10  84 S8        30.15F WCI   3
STAPLES        FLURRIES  10   7  85 W9        30.15S WCI  -2
LONG PRAIRIE   CLOUDY    18  14  86 SW10      30.16F WCI   6
LITTLE FALLS   CLOUDY    18  12  79 S5        30.18S WCI  11
LITCHFIELD     PTCLDY    14  12  92 SW3       30.20F
BUFFALO        PTCLDY    14  10  85 S6        30.23F WCI   5
MAPLE LAKE     PTCLDY    16  13  89 S5        30.22S WCI   8
$$
MNZ037-044-045-052-053-011000-
   East Central Minnesota

CITY           SKY/WX    TMP DP  RH WIND       PRES   REMARKS
PRINCETON      PTCLDY    16  10  79 S7        30.20F WCI   6
MORA           MOCLDY    12   7  79 S5        30.21F WCI   4
CAMBRIDGE      PTCLDY    16   7  67 S6        30.20F WCI   7
RUSH CITY      CLOUDY    12   8  82 S6        30.22F WCI   3
MOOSE LAKE     FLURRIES  10   7  85 CALM      30.17F
HINCKLEY       FLURRIES  12   9  85 S6        30.20F WCI   3
CLOQUET        FLURRIES  10   7  85 S12G18    30.15F WCI  -4
MCGREGOR       CLOUDY    14  10  85 S7        30.16S WCI   4
$$
MNZ071>073-080-081-089-090-097-098-011000-
   Southwest Minnesota

CITY           SKY/WX    TMP DP  RH WIND       PRES   REMARKS
MONTEVIDEO     PTCLDY    14   7  73 N12       30.23F WCI   0
GRANITE FALLS  MOCLDY    14   6  69 W12       30.26R WCI   1
CANBY          PTCLDY    11   5  77 W10       30.26S WCI  -3
MARSHALL       MOCLDY    14   7  73 NW10      30.26R WCI   1
REDWOOD FALLS  MOCLDY    16  11  80 W9        30.23S WCI   4
OLIVIA         CLOUDY    14  12  92 NW8       30.21F WCI   3
PIPESTONE      CLEAR      7   3  85 SW3       30.21F
WINDOM         CLEAR     12  10  92 SW15      30.22F WCI  -4
WORTHINGTON    CLEAR     19   9  63 SW15      30.24F WCI   5
JACKSON        CLEAR     16  12  86 SW15      30.23F WCI   1
TRACY          CLOUDY    18  13  82 W6        30.24S WCI  10
SLAYTON        MOCLDY    12   8  87 CALM      30.23S
$$
MNZ065>067-074>077-082>085-091>093-011000-
   South Central Minnesota

CITY           SKY/WX    TMP DP  RH WIND       PRES   REMARKS
MANKATO        MOCLDY    12   9  85 S9        30.26S WCI   0
NEW ULM        CLEAR     12   9  85 SW12      30.24F WCI  -2
ST JAMES       CLEAR     16  10  79 S9        30.26S WCI   4
FAIRMONT       CLEAR     14  10  85 S12       30.24F WCI   0
GLENCOE        PTCLDY    15  12  90 S8        30.22F WCI   4
FARIBAULT      CLOUDY    12   9  85 S10G17    30.26F WCI  -1
OWATONNA       MOCLDY    10   9  92 S12       30.26F WCI  -4
WASECA         CLOUDY    14  10  85 S13       30.27F WCI   0
ALBERT LEA     CLOUDY    10   9  92 S7        30.27F FOG     WCI   0
$$
MNZ078>079-086>088-094>096-011000-
   Southeast Minnesota

CITY           SKY/WX    TMP DP  RH WIND       PRES   REMARKS
ROCHESTER      MOCLDY     7   4  87 S12       30.27F WCI  -8
RED WING       MOCLDY    14   9  79 CALM      30.30F
STANTON        CLOUDY    14  10  83 S9        30.26F WCI   2
DODGE CENTER   LGT SNOW  10   9  92 SW14      30.25F WCI  -5
WINONA         PTCLDY    12   9  85 SE3       30.36F
AUSTIN         MOCLDY     7   3  85 S6        30.28F WCI  -3
PRESTON        PTCLDY     8   5  89 S13       30.29F WCI  -8
$$
ABBREVIATIONS USED IN REMARKS
   TC - TEMPERATURES IN CELSIUS
  WCI - WIND CHILL INDEX
   HX - HEAT INDEX
  VSB - VISIBILITY
$$



USA.gov is the U.S. government's official web portal to all federal, state and local government web resources and services.